Regional & State Weather Roundups


810 
ASUS41 KLWX 241610
RWRLWX
REGIONAL WEATHER ROUNDUP
NATIONAL WEATHER SERVICE BALTIMORE MD/WASHINGTON DC
1200 PM EDT FRI OCT 24 2014
Note: "FAIR" indicates few or no clouds below 12,000 feet
with no significant weather and/or obstructions to visibility.
 TC=TEMPERATURE CELSIUS
 * =Non NWS site. Station does not report precipitation (e.g. rain,
    snow, etc.), thunder, or fog.
DCZ001-MDZ009-015-VAZ040>042-051-053>054-241700-
WASHINGTON METRO
  
CITY           SKY/WX    TMP DP  RH WIND       PRES   REMARKS
WASHINGTON NAT CLOUDY    64  43  46 NW9       29.98F                  
DULLES         PTSUNNY   58  42  55 NW15G22   29.99F                  
ANDREWS AFB    MOSUNNY   62  44  51 NW17      29.95F                  
FT BELVOIR     MOSUNNY   63  43  48 NW20G25   29.98F                  
QUANTICO       PTSUNNY   63  40  42 N14G23    29.99F                  
COLLEGE PARK*  MOSUNNY   63  43  48 NW14      29.96F                  
LEESBURG*      PTSUNNY   61  46  59 NW12G18   30.00F                  
MANASSAS*      PTSUNNY   63  43  48 NW12G17   29.99F                  
GAITHERSBURG*  MOSUNNY   59  43  55 W13       30.01F                  
$$
MDZ006>007-011-014-241700-
BALTIMORE METRO
  
CITY           SKY/WX    TMP DP  RH WIND       PRES   REMARKS
BWI AIRPORT    NOT AVBL                                               
MD SCIENCE CTR   N/A     64  40  41 MISG      29.95S                  
MARTIN STATE   MOSUNNY   64  48  55 NW18      29.94F                  
ANNAPOLIS      MOSUNNY   62  43  49 NW16G23   29.93F                  
FORT MEADE*    MOSUNNY   63  43  48 NW12G20   29.97F                  
$$
MDZ012-015-019>023-241700-
MARYLAND EASTERN SHORE
  
CITY           SKY/WX    TMP DP  RH WIND       PRES   REMARKS
OCEAN CITY     MOSUNNY   64  47  53 NW21G26   29.89F                  
SALISBURY      MOSUNNY   66  46  48 NW16G23   29.91S                  
BAY BRIDGE AP*   N/A     63  43  48 NW15G21   29.93F                  
CAMBRIDGE*     MOSUNNY   63  45  51 NW14G20   29.92F                  
$$
MDZ017>025-241700-
SOUTHERN MARYLAND
  
CITY           SKY/WX    TMP DP  RH WIND       PRES   REMARKS
PATUXENT RIVER MOSUNNY   63  44  50 NW17G25   29.95S                  
ST INIGOES     MOSUNNY   65  44  46 NW13      29.94F                  
LEONARDTOWN*   MOSUNNY   63  43  48 W10G16    29.96S                  
$$
MDZ003>005-241700-
NORTH CENTRAL MARYLAND
  
CITY           SKY/WX    TMP DP  RH WIND       PRES   REMARKS
FREDERICK*     SUNNY     66  43  42 NW8       30.01F                  
HAGERSTOWN APT MOSUNNY   60  39  45 W16G26    29.99F                  
WESTMINSTER*   MOSUNNY   61  36  39 NW13G18   29.96S                  
$$
MDZ501>502-241700-
WESTERN MARYLAND
  
CITY           SKY/WX    TMP DP  RH WIND       PRES   REMARKS
OAKLAND*       MOSUNNY   43 N/A N/A W8        30.07R                  
CUMBERLAND*    MOSUNNY   61  37  41 W8        30.07F                  
$$
VAZ025>031-241700-
SHENANDOAH VALLEY
  
CITY           SKY/WX    TMP DP  RH WIND       PRES   REMARKS
WINCHESTER*    PTSUNNY   61  36  39 NW16      30.01F                  
FRONT ROYAL*   FAIR      61  41  48 NW3       30.00F                  
LURAY*         FAIR      61  45  55 S3        30.02F                  
NEW MARKET*    FAIR      58  42  54 CALM      30.03F                  
STAUNTON*      CLOUDY    56  40  56 CALM      30.06F                  
WAYNESBORO*    FAIR      56  42  57 NW3       30.03F                  
$$
WVZ021-048>050-054>055-241700-
EASTERN WEST VIRGINIA PANHANDLE
  
CITY           SKY/WX    TMP DP  RH WIND       PRES   REMARKS
MARTINSBURG    MOSUNNY   61  39  44 NW16      30.00F                  
PETERSBURG*    CLOUDY    57  39  51 CALM      30.05F                  
$$
VAZ036>039-050-241700-
CENTRAL FOOTHILLS
  
CITY           SKY/WX    TMP DP  RH WIND       PRES   REMARKS
CHARLOTTESVILL CLOUDY    61  39  44 N9        30.01S                  
CULPEPER*      PTSUNNY   63  39  42 W5        30.00F                  
ORANGE*        CLOUDY    61  45  55 CALM      30.02S                  
GORDONSVILLE*  NOT AVBL                                               
WARRENTON*     FAIR      63  46  53 NW9       29.99S                  
$$
VAZ055>057-241700-
NORTH AND CENTRAL PIEDMONT
  
CITY           SKY/WX    TMP DP  RH WIND       PRES   REMARKS
FREDERICKSBRG* PTSUNNY   65  43  45 NW9       29.99S                  
STAFFORD*      PTSUNNY   62  38  41 NW18G24   30.02F                  
$$
NCZ024-NYZ072-PAZ021-071-VAZ022-071-241700-
OTHER REGIONAL OBSERVATIONS
  
CITY           SKY/WX    TMP DP  RH WIND       PRES   REMARKS
NEW YORK CITY  PTSUNNY   57  41  55 MISG      29.84S                  
PHILADELPHIA   MOSUNNY   65  44  46 NW14      29.87F                  
PITTSBURGH     CLOUDY    53  42  66 NW9       30.09F                  
ROANOKE        PTSUNNY   60  41  49 SW6       30.08F                  
RICHMOND       CLOUDY    63  42  46 NW12      30.00F                  
RALEIGH        MOSUNNY   63  44  50 CALM      30.05F                  
$$
ANZ530>537-241700-
MARINE OBSERVATIONS
  
STATION/POSITION TIME  TEMP    WIND        PRES
                       AIR SEA DIR/SP/G
                 (UTC) (F)     (DEG/KT/KT) (MB)
THOMAS PT LIGHT  1600   61 62  320/ 17/ 21 1014.3F
BALT KEY BRIDGE  1600   62     300/ 15/ 18 1013.4S
COVE POINT       1600   60     340/ 19/ 22 1013.6R
LEWISETTA        1600   61 59  320/ 12/ 17 1014.0S
SOLOMONS ISLAND  1600      64                N/A
PINEY POINT      1600          330/ 17/ 19   N/A
$$